Home > Weather > Esch-sur-Alzette > Past weeks

Flag for Luxembourg Past Weather in Esch-sur-Alzette, Luxembourg — Yesterday and Last 2 Weeks

Now
54 °F

Drizzle. Broken clouds.


Feels Like: 51 °F
Forecast: 49 / 63 °F
Wind: 9 mph from South

Location: Luxembourg Airport

Current Time: May 31, 2016 at 10:04:50 AM

Latest Report: May 31, 2016 at 9:20 AM


Visibility: 1 mi

Pressure: 29.74 "Hg

Humidity: 94%

Dew Point: 52 °F

Location of Esch-sur-AlzetteLocation

Past Weather in Esch-sur-Alzette — Graph

°F

Esch-sur-Alzette Temperature Yesterday

Maximum temperature yesterday: 63 °F (at 12:50 PM)
Minimum temperature yesterday: 54 °F (at 10:50 PM)
Average temperature yesterday: 58 °F

High & Low Weather Summary for the Past Weeks

 TemperatureHumidityPressure
High73 °F (May 26, 4:50 PM)100% (May 19, 2:20 AM)30.12 "Hg (May 19, 2:20 AM)
Low41 °F (May 17, 12:50 AM)41% (May 26, 4:50 PM)29.59 "Hg (May 30, 10:50 AM)
Average56 °F80%29.92 "Hg
* Reported May 16 8:20 AM — May 31 8:50 AM, Esch-sur-Alzette, Weather by CustomWeather, © 2016

Note: Actual official high and low records may vary slightly from our data, if they occured in-between our weather recording intervals... More about our weather records

Advertising

Esch-sur-Alzette Weather History for the Previous 24 Hours

Scroll right to see more
 ConditionsComfort  
Time TempWeatherWind HumidityBarometerVisibility
8:50 AM
Tue, May 31
54 °FBroken clouds.9 mph94%29.74 "Hg4 mi
8:20 AM54 °FFog.8 mph94%29.74 "Hg2 mi
7:50 AM54 °FFog.9 mph94%29.71 "Hg2 mi
7:20 AM54 °FFog.8 mph94%29.71 "Hg2 mi
6:50 AM54 °FFog.9 mph94%29.71 "Hg2 mi
6:20 AM52 °FPartly cloudy.8 mph100%29.71 "Hg4 mi
5:50 AM52 °FPartly cloudy.8 mph100%29.68 "Hg4 mi
5:20 AM54 °FMostly cloudy.8 mph94%29.68 "Hg5 mi
4:50 AM52 °FPartly cloudy.9 mph100%29.68 "Hg4 mi
4:20 AM54 °FDrizzle. Low clouds.8 mph94%29.68 "Hg4 mi
3:50 AM54 °FDrizzle. Mostly cloudy.9 mph94%29.68 "Hg2 mi
3:20 AM54 °FDrizzle. Mostly cloudy.8 mph94%29.68 "Hg4 mi
2:50 AM54 °FDrizzle. Mostly cloudy.9 mph100%29.68 "Hg3 mi
2:20 AM54 °FDrizzle. Mostly cloudy.9 mph100%29.68 "Hg3 mi
1:50 AM54 °FLight rain. Fog.10 mph100%29.65 "Hg1 mi
1:20 AM54 °FLight rain. Partly cloudy.10 mph100%29.65 "Hg1 mi
12:50 AM54 °FLight rain. Fog.10 mph100%29.65 "Hg1 mi
12:20 AM54 °FLight rain. Fog.8 mph100%29.65 "Hg1 mi
11:50 PM
Mon, May 30
54 °FLight rain. Fog.8 mph100%29.65 "Hg1 mi
11:20 PM54 °FLight rain. Fog.8 mph100%29.65 "Hg1 mi
10:50 PM54 °FLight rain. Fog.7 mph100%29.65 "Hg2 mi
10:20 PM55 °FLight rain. Fog.8 mph94%29.65 "Hg1 mi
9:50 PM55 °FLight rain. Broken clouds.8 mph94%29.62 "Hg2 mi
9:20 PM55 °FLight rain. Broken clouds.9 mph94%29.62 "Hg2 mi
8:50 PM55 °FLight rain. Fog.10 mph100%29.62 "Hg2 mi
8:20 PM55 °FRain. Fog.8 mph100%29.62 "Hg1 mi
7:50 PM57 °FFog.6 mph94%29.62 "Hg2 mi
7:20 PM57 °FBroken clouds.6 mph100%29.62 "HgN/A
6:50 PM59 °FLight rain. Broken clouds.5 mph94%29.59 "Hg2 mi
6:20 PM61 °FRain. Broken clouds.6 mph94%29.59 "Hg2 mi
5:50 PM61 °FLight rain. Partly sunny.1 mph94%29.59 "Hg4 mi
5:20 PM61 °FLight rain. Partly sunny.3 mph94%29.59 "Hg3 mi
4:50 PM61 °FRain. Partly sunny.5 mph94%29.59 "Hg4 mi
4:20 PM61 °FLight rain. Partly sunny.8 mph94%29.62 "Hg4 mi
3:50 PM61 °FDrizzle. Broken clouds.6 mph94%29.59 "Hg3 mi
3:20 PM61 °FDrizzle. Partly sunny.6 mph94%29.59 "Hg3 mi
2:50 PM61 °FBroken clouds.3 mph94%29.59 "HgN/A
2:20 PM61 °FPartly sunny.3 mph94%29.59 "HgN/A
1:50 PM63 °FPartly sunny.7 mph88%29.59 "HgN/A
12:50 PM63 °FLight rain. Broken clouds.10 mph88%29.59 "Hg5 mi
12:20 PM61 °FBroken clouds.7 mph94%29.59 "HgN/A
11:50 AM59 °FPartly sunny.7 mph100%29.59 "Hg5 mi
11:20 AM57 °FLight rain. Fog.7 mph100%29.59 "Hg2 mi
10:50 AM57 °FLight rain. Fog.7 mph100%29.59 "Hg2 mi
10:20 AM57 °FRain. Fog.6 mph100%29.62 "Hg2 mi
Weather by CustomWeather, © 2016

See weather overviewHow to use our weather pages